Weather History for KRYT - July, 2013

Change the Weather History Date:

Thursday, July 4, 2013

  Actual Average (KHGR) Record (KHGR)
Temperature  
Mean Temperature 80 °F 75 °F  
Max Temperature 88 °F 85 °F - ()
Min Temperature 71 °F 65 °F - ()
Degree Days  
Heating Degree Days 0 0  
Month to date heating degree days 0  
Since 1 June heating degree days 18  
Since 1 July heating degree days 0  
Cooling Degree Days 14 10  
Month to date cooling degree days 40  
Year to date cooling degree days 325  
Since 1 June cooling degree days 249  
Growing Degree Days 30 (Base 50)    
Moisture  
Dew Point 69 °F    
Average Humidity 71    
Maximum Humidity 85    
Minimum Humidity 55    
Precipitation  
Precipitation 0.00 in 0.10 in - ()
Month to date precipitation 0.37  
Year to date precipitation 20.45  
Sea Level Pressure  
Sea Level Pressure 30.19 in    
Wind  
Wind Speed 3 mph (SW)    
Max Wind Speed 8 mph    
Max Gust Speed -    
Visibility 10 miles    
Events      
T = Trace of Precipitation, MM = Missing Value Source: NWS Daily Summary

Daily Weather History Graph

Daily Weather History Graph

Search for Another Location

Airport or City:

Trip Planner

Search our weather history database for the weather conditions in past years. The results will help you decide how hot, cold, wet, or windy it might be!

Date:

Astronomy

Jul. 04, 2013 Rise Set
Actual Time 5:47 AM EDT 8:41 PM EDT
Civil Twilight 5:14 AM EDT 9:13 PM EDT
Nautical Twilight 4:33 AM EDT 9:54 PM EDT
Astronomical Twilight 3:46 AM EDT 10:41 PM EDT
Moon 3:02 AM EDT (7/4) 5:43 PM EDT (7/4)
Length of Visible Light 15h 58m
Length of Day
14h 53m
Waning Crescent, 11% of the Moon is Illuminated
Jul 4
Waning Crescent
Jul 8
New
Jul 15
First Quarter
Jul 22
Full
Jul 29
Last Quarter

Hourly Weather History & Observations

Time (EDT) Temp. Heat Index Dew Point Humidity Pressure Visibility Wind Dir Wind Speed Gust Speed Precip Events Conditions
12:15 AM 78.8 °F - 69.8 °F 74% 30.24 in 10.0 mi SW 3.5 mph - N/A   Mostly Cloudy
12:53 AM 78.1 °F - 70.0 °F 76% 30.19 in 10.0 mi Variable 3.5 mph - N/A   Mostly Cloudy
1:18 AM 77.0 °F - 69.8 °F 78% 30.23 in 10.0 mi Calm Calm - N/A   Scattered Clouds
1:53 AM 75.9 °F - 69.1 °F 79% 30.19 in 10.0 mi Calm Calm - N/A   Scattered Clouds
2:53 AM 75.0 °F - 69.1 °F 82% 30.17 in 10.0 mi Calm Calm - N/A   Clear
3:53 AM 73.0 °F - 68.0 °F 84% 30.18 in 8.0 mi Calm Calm - N/A   Clear
4:53 AM 72.0 °F - 66.9 °F 84% 30.18 in 8.0 mi Calm Calm - N/A   Scattered Clouds
5:04 AM 71.6 °F - 66.2 °F 83% 30.22 in 7.0 mi Calm Calm - N/A   Scattered Clouds
5:53 AM 73.0 °F - 68.0 °F 84% 30.19 in 6.0 mi Calm Calm - N/A   Haze
6:53 AM 73.9 °F - 69.1 °F 85% 30.20 in 9.0 mi Calm Calm - N/A   Overcast
7:53 AM 78.1 °F - 69.1 °F 74% 30.20 in 10.0 mi Variable 3.5 mph - N/A   Scattered Clouds
8:53 AM 79.0 °F - 69.1 °F 72% 30.21 in 10.0 mi SW 6.9 mph - N/A   Scattered Clouds
9:53 AM 81.0 °F 84.1 °F 69.1 °F 67% 30.21 in 10.0 mi Variable 4.6 mph - N/A   Mostly Cloudy
10:34 AM 82.4 °F 86.3 °F 69.8 °F 66% 30.25 in 10.0 mi Variable 4.6 mph - N/A   Mostly Cloudy
10:41 AM 82.4 °F 86.3 °F 69.8 °F 66% 30.25 in 10.0 mi SW 8.1 mph - N/A   Mostly Cloudy
10:53 AM 82.9 °F 86.5 °F 69.1 °F 63% 30.20 in 10.0 mi Variable 4.6 mph - N/A   Mostly Cloudy
11:53 AM 84.0 °F 87.8 °F 69.1 °F 61% 30.20 in 10.0 mi SSW 4.6 mph - N/A   Mostly Cloudy
12:53 PM 84.9 °F 90.1 °F 71.1 °F 63% 30.19 in 10.0 mi Variable 5.8 mph - N/A   Mostly Cloudy
1:53 PM 87.1 °F 93.6 °F 72.0 °F 61% 30.18 in 10.0 mi Variable 3.5 mph - N/A   Partly Cloudy
2:53 PM 86.0 °F 91.5 °F 71.1 °F 61% 30.17 in 10.0 mi Variable 5.8 mph - N/A   Scattered Clouds
4:53 PM 87.1 °F 92.8 °F 71.1 °F 59% 30.14 in 10.0 mi Variable 5.8 mph - N/A   Scattered Clouds
5:53 PM 88.0 °F 92.9 °F 70.0 °F 55% 30.13 in 10.0 mi Variable 4.6 mph - N/A   Clear
6:53 PM 86.0 °F 90.7 °F 70.0 °F 59% 30.14 in 10.0 mi Variable 4.6 mph - N/A   Partly Cloudy
7:53 PM 84.0 °F 87.8 °F 69.1 °F 61% 30.15 in 10.0 mi Variable 3.5 mph - N/A   Clear
8:53 PM 81.0 °F 84.1 °F 69.1 °F 67% 30.16 in 10.0 mi Calm Calm - N/A   Clear
9:53 PM 79.0 °F - 68.0 °F 69% 30.17 in 10.0 mi Calm Calm - N/A   Clear
10:53 PM 78.1 °F - 68.0 °F 71% 30.17 in 10.0 mi Calm Calm - N/A   Clear
11:53 PM 75.9 °F - 68.0 °F 76% 30.17 in 10.0 mi Calm Calm - N/A   Clear